GW0118 Weather Reports


Display with metric or nautical units.
time (UTC)temp
F
wind
direction
speed
MPH
gust
MPH
rain 1hr
in
rain 24hr
in
rain mn
in
humidity
%
barometer
mb
20260906040123 67 68 0.0 2.0 0.00 0.00 0.00 54 1026.3
20260906034611 68 122 2.0 3.0 0.00 0.00 0.00 53 1026.6
20260906033106 67 0 0.0 2.0 0.00 0.00 0.00 56 1027.0
20260906031606 67 114 1.0 4.0 0.00 0.00 0.00 55 1026.9
20260906030135 67 124 2.0 4.0 0.00 0.00 0.00 54 1026.9
20260906024604 68 0 0.0 1.0 0.00 0.00 0.00 53 1026.9
20260906023126 68 0 0.0 2.0 0.00 0.00 0.00 53 1027.0
20260906021613 68 0 0.0 1.0 0.00 0.00 0.00 53 1026.9
20260906020107 68 0 0.0 1.0 0.00 0.00 0.00 53 1026.9
20260906014621 69 0 0.0 1.0 0.00 0.00 0.00 52 1027.1
20260906013102 69 112 0.0 1.0 0.00 0.00 0.00 52 1027.3
20260906011607 69 0 0.0 1.0 0.00 0.00 0.00 52 1027.2
20260906010104 69 100 0.0 1.0 0.00 0.00 0.00 52 1027.3
20260906004609 69 0 0.0 1.0 0.00 0.00 0.00 52 1027.3
20260906003109 70 65 0.0 1.0 0.00 0.00 0.00 51 1027.4
20260906001605 70 0 0.0 0.0 0.00 0.00 0.00 50 1027.7
20260905234615 69 95 0.0 2.0 0.00 0.00 0.00 51 1027.4
20260905233102 70 0 0.0 2.0 0.00 0.00 0.00 49 1027.7
20260905231600 71 0 0.0 1.0 0.00 0.00 0.00 49 1027.8
20260905230106 71 0 0.0 1.0 0.00 0.00 0.00 48 1027.7
20260905224609 72 0 0.0 0.0 0.00 0.00 0.00 47 1027.6
20260905223101 73 0 0.0 2.0 0.00 0.00 0.00 46 1027.6
20260905221602 74 112 1.0 3.0 0.00 0.00 0.00 45 1027.6
20260905220106 74 0 1.0 2.0 0.00 0.00 0.00 44 1027.6
20260905214612 75 0 0.0 5.0 0.00 0.00 0.00 43 1027.6
20260905213111 76 56 0.0 2.0 0.00 0.00 0.00 42 1027.6
20260905211607 76 51 2.0 6.0 0.00 0.00 0.00 41 1027.5
20260905210108 77 0 0.0 5.0 0.00 0.00 0.00 40 1027.6
20260905204602 78 54 3.0 12.0 0.00 0.00 0.00 40 1027.6
20260905203118 79 345 7.0 13.0 0.00 0.00 0.00 38 1027.4
20260905201608 79 326 7.0 15.0 0.00 0.00 0.00 37 1027.3
20260905200106 80 320 8.0 13.0 0.00 0.00 0.00 36 1027.1
20260905194601 81 20 10.0 19.0 0.00 0.00 0.00 35 1026.9
20260905193103 82 332 13.0 20.0 0.00 0.00 0.00 33 1026.5
20260905191614 83 6 11.0 18.0 0.00 0.00 0.00 31 1026.3
20260905190104 84 342 9.0 16.0 0.00 0.00 0.00 30 1026.2
20260905184611 85 294 10.0 17.0 0.00 0.00 0.00 29 1025.9
20260905183106 86 352 6.0 14.0 0.00 0.00 0.00 28 1025.9
20260905181603 88 0 0.0 1.0 0.00 0.00 0.00 26 1025.7
20260905180100 89 321 0.0 0.0 0.00 0.00 0.00 25 1025.6
20260905174619 89 0 0.0 2.0 0.00 0.00 0.00 25 1025.7
20260905173110 89 247 2.0 4.0 0.00 0.00 0.00 25 1025.6
20260905171606 89 269 2.0 5.0 0.00 0.00 0.00 25 1025.6
20260905164603 90 221 4.0 8.0 0.00 0.00 0.00 24 1025.5
20260905163109 90 226 5.0 10.0 0.00 0.00 0.00 24 1025.3
20260905161605 90 255 7.0 13.0 0.00 0.00 0.00 23 1025.3
20260905160110 92 251 4.0 10.0 0.00 0.00 0.00 20 1025.1
20260905154605 92 182 4.0 8.0 0.00 0.00 0.00 20 1025.1
20260905153113 93 257 2.0 14.0 0.00 0.00 0.00 20 1025.0
20260905151601 93 281 5.0 11.0 0.00 0.00 0.00 20 1025.1
20260905150104 93 219 3.0 11.0 0.00 0.00 0.00 21 1025.2
20260905144613 93 157 3.0 8.0 0.00 0.00 0.00 21 1025.3
20260905143108 93 255 4.0 11.0 0.00 0.00 0.00 20 1025.5
20260905141615 93 184 7.0 12.0 0.00 0.00 0.00 20 1025.6
20260905140109 94 22 6.0 16.0 0.00 0.00 0.00 20 1025.8
20260905134612 94 182 5.0 12.0 0.00 0.00 0.00 19 1025.9
20260905133102 94 265 8.0 15.0 0.00 0.00 0.00 20 1026.0
20260905131608 95 239 9.0 18.0 0.00 0.00 0.00 19 1026.0
20260905130113 95 191 8.0 14.0 0.00 0.00 0.00 20 1026.2
20260905124601 94 207 5.0 16.0 0.00 0.00 0.00 20 1026.3
20260905123102 94 265 3.0 14.0 0.00 0.00 0.00 21 1026.5
20260905121603 94 146 3.0 15.0 0.00 0.00 0.00 21 1026.6
20260905120105 93 57 3.0 14.0 0.00 0.00 0.00 22 1026.9
20260905114636 92 242 7.0 15.0 0.00 0.00 0.00 23 1026.9
20260905113102 92 216 5.0 14.0 0.00 0.00 0.00 23 1027.0
20260905111603 92 184 8.0 14.0 0.00 0.00 0.00 22 1027.1
20260905110059 91 203 4.0 15.0 0.00 0.00 0.00 23 1027.1
20260905104604 91 239 5.0 17.0 0.00 0.00 0.00 23 1027.3
20260905103104 91 216 5.0 13.0 0.00 0.00 0.00 23 1027.4
20260905101559 90 279 6.0 12.0 0.00 0.00 0.00 24 1027.5
20260905100114 89 195 4.0 12.0 0.00 0.00 0.00 24 1027.6
20260905094625 88 164 7.0 12.0 0.00 0.00 0.00 25 1027.6
20260905093103 87 211 3.0 9.0 0.00 0.00 0.00 28 1027.6
20260905091615 85 275 2.0 11.0 0.00 0.00 0.00 29 1027.5
20260905090105 83 226 2.0 5.0 0.00 0.00 0.00 30 1027.4
20260905084600 80 0 0.0 2.0 0.00 0.00 0.00 35 1027.3
20260905083103 78 78 2.0 3.0 0.00 0.00 0.00 36 1027.1
20260905081603 76 64 1.0 2.0 0.00 0.00 0.00 37 1027.1
20260905080106 75 0 0.0 1.0 0.00 0.00 0.00 42 1027.1
20260905074604 70 0 0.0 2.0 0.00 0.00 0.00 43 1027.2
20260905073113 69 250 1.0 2.0 0.00 0.00 0.00 45 1027.1
20260905071601 70 0 0.0 1.0 0.00 0.00 0.00 43 1027.0
20260905070105 68 68 2.0 5.0 0.00 0.00 0.00 45 1026.8
20260905064615 67 60 2.0 3.0 0.00 0.00 0.00 46 1026.9
20260905063117 65 59 2.0 5.0 0.00 0.00 0.00 48 1026.7
20260905061624 66 70 1.0 4.0 0.00 0.00 0.00 46 1026.7
20260905060106 67 0 0.0 0.0 0.00 0.00 0.00 44 1026.6
20260905054606 66 0 0.0 1.0 0.00 0.00 0.00 44 1026.6
20260905053104 65 0 0.0 1.0 0.00 0.00 0.00 46 1026.5
20260905051612 66 0 0.0 0.0 0.00 0.00 0.00 46 1026.5
20260905050109 66 0 0.0 0.0 0.00 0.00 0.00 46 1026.3
20260905044607 66 0 0.0 0.0 0.00 0.00 0.00 46 1026.4
20260905043103 68 0 0.0 0.0 0.00 0.00 0.00 43 1026.2
20260905041603 67 0 0.0 0.0 0.00 0.00 0.00 45 1026.2